weather.gov     
National Weather Service

Terminal Aerodrome Forecast
NWS Homepage
This page is being discontinued on March 12, 2014.
The same data is available at this site. Please update your bookmarks.
Thank you, and we apologize for the inconvenience.
Please send an email to SR-SRH.Webmaster@noaa.gov with any concerns.


Current Version
Previous Version:    01  02  03  04  05  06  07  08  09  10  11  12  13  14  15  16  17  18  19  20  21  22  23  
[Printable]
090
FTUS43 KPAH 210500
TAFPAH
TAF
KPAH 210520Z 2106/2206 VRB03KT P6SM SCT150 BKN250
     FM211400 19006KT P6SM SCT050 BKN080
     FM211800 20008KT P6SM SCT030 BKN060
     FM220100 23007KT 4SM -TSRA BR BKN030CB=


U.S. Dept. of Commerce
NOAA National Weather Service
1325 East West Highway
Silver Spring, MD 20910
E-mail: w-nws.webmaster@noaa.gov
Page last modified: May 16, 2007
NATIONAL WEATHER SERVICE: for Safety, for Work, for Fun - FOR LIFE